sat.trackr.live / text

‹ back to catalog

STARLINK-5684

NORAD 55453 · 2023-015E

PAYLOAD ACTIVE UNKNOWN

§ Identity

Operator
Country
US
Launch date
2023-02-02
Launch site
AFETR
Launch vehicle
Mass (kg)
RCS (m²)

Purposes: comms

External: N2YO · Heavens-Above · Gunter

§ Orbital elements

Epoch: 2026-05-24T17:32:31.593408Z

Period
94.27 min
Inclination
43.0029°
Eccentricity
0.0001665
Mean motion
15.27576103 rev/d
Perigee alt
481.9 km
Apogee alt
484.2 km
Semi-major
6,861.2 km
B*
2.5466e-5
RAAN
259.1013°
Arg perigee
261.9054°
Mean anomaly
98.1609°
Rev number
18,235

§ Raw data

STARLINK-56841 55453U 23015E   26144.73092122  .00000438  00000+0  25466-4 0  99972 55453  43.0029 259.1013 0001665 261.9054  98.1609 15.27576103182357

JSON: /api/v1/satellites/55453 · /tle

For live sub-satellite position, see the globe view (requires WebGL).

§ Visibility from observer

Set your observer location to see the next 7 days of passes ≥ 10°. The values pass through the URL so the page stays shareable.

No JS? Fill the form by hand. The geolocation button needs JavaScript.